Raleigh International Airport Airport (RDU)

 

Airport Diagram
Current Weather/Forecast (VFR Conditions)
METAR KRDU 302351Z 24012G19KT 10SM FEW025 SCT040 BKN050 13/09 A2958 RMK AO2 SLP016 T01280089 10206 20128 51022
TAF KRDU 302328Z 0100/0124 25010G18KT P6SM BKN050 FM010700 25010G18KT P6SM BKN035 FM011100 26014G23KT P6SM SCT050 SCT250

All Charts
General
Chart Name Download
AIRPORT DIAGRAM
TAKEOFF MINIMUMS
DIVERSE VECTOR AREA
ALTERNATE MINIMUMS
HOT SPOT

Departures
Chart Name Download
BEXGO THREE (RNAV)
BLUE DEVIL SEVEN
FAYETTEVILLE FOUR
HOOKZ THREE (RNAV)
HURIC THREE (RNAV)
LWOOD THREE (RNAV)
OXFRD THREE (RNAV)
PACKK EIGHT
RALEIGH NINE
RALEIGH NINE, CONT.1
ROZBO THREE (RNAV)
SHPRD THREE (RNAV)
TAR HEEL ONE

Arrivals
Chart Name Download
ALDAN TWO (RNAV)
ALDAN TWO (RNAV), CONT.1
ARGAL SIX
BLOGS TWO (RNAV)
BRADE SIX
BUZZY NINE
KAROO TWO (RNAV)
KAROO TWO (RNAV), CONT.1
MALNR FOUR (RNAV)
MALNR FOUR (RNAV), CONT.1
SOUTH BOSTON SEVEN

Approaches
Chart Name Download
ILS OR LOC RWY 05L
ILS OR LOC RWY 05R
ILS OR LOC RWY 23L
ILS OR LOC RWY 23R
ILS RWY 05R (SA CAT I - II)
ILS RWY 23R (CAT II - III)
RNAV (RNP) Z RWY 05L
RNAV (RNP) Z RWY 05R
RNAV (RNP) Z RWY 23L
RNAV (RNP) Z RWY 23R
RNAV (GPS) RWY 32
RNAV (GPS) Y RWY 05L
RNAV (GPS) Y RWY 05R
RNAV (GPS) Y RWY 23L
RNAV (GPS) Y RWY 23R
VOR RWY 05R
VOR RWY 23L


Inbound Traffic (Arrivals)

No inbound traffic.


Outbound Traffic (Departures)

No outbound traffic.